User: anonymous   Login
Location: Oshawa
(43.9000°N, 78.8670°W)
Time: 15:42:14
(UTC-05:00)
Language:

Cosmos 1408 Rocket - Orbit

View from above orbital plane
View from above orbital plane
View from above satellite
View from above satellite

Ground track
Ground track

The orbit data is extracted from the following two-line orbital elements,

1 13553U 82092B   14331.49692383  .00000502  00000-0  57739-4 0   784
2 13553 082.5696 022.8596 0020468 243.5710 198.3901 14.83688579738715
Epoch (UTC): 27 November 2014 11:55:34
Eccentricity: 0.0020468
inclination: 82.5696°
perigee height: 603 km
apogee height: 632 km
right ascension of ascending node: 22.8596°
argument of perigee: 243.5710°
revolutions per day: 14.83688579
mean anomaly at epoch: 198.3901°
orbit number at epoch: 73871

The dashed part of the orbit path shows where the satellite is in the earth's shadow,  

DLR